Location: Wildcat Hills Observatory
(41.6350°N, 103.6812°W)
Time: 16:17:43
(UTC-06:00)

Daily predictions for brighter satellites

Satellite Brightness Start Highest point End
(mag) Time Altitude Azimuth Time Altitude Azimuth Time Altitude Azimuth
Cosmos 1356 Rocket 3.7 20:39:19 10° SSW 20:43:33 78° W 20:47:52 10° N
Cosmos 1674 Rocket 3.7 20:39:11 10° N 20:43:35 57° E 20:47:56 10° SSE
Cosmos 1452 Rocket 4.0 20:39:33 10° S 20:44:26 40° ESE 20:49:21 10° NE
Cosmos 2074 Rocket 4.1 20:39:28 10° S 20:45:45 84° E 20:52:02 10° N
Cosmos 1190 Rocket 4.0 20:42:15 10° NNW 20:47:29 84° ENE 20:52:40 10° SSE
ATLAS 5 CENTAUR R/B 3.1 20:44:23 10° NW 20:50:17 54° WSW 20:56:32 10° SSE
Resurs 01 Rocket 4.3 20:52:18 10° SW 20:55:18 18° W 20:58:19 10° NW
Atlas Centaur 2 3.2 20:53:50 10° SW 20:55:28 13° S 20:57:04 10° SSE
Cosmos 1242 Rocket 4.4 20:53:04 10° NNE 20:55:30 17° ENE 20:57:56 10° ESE
Cosmos 1610 Rocket 4.5 20:49:37 10° S 20:55:43 69° E 21:01:55 10° NNE
ISS -3.2 20:52:34 10° SW 20:55:44 53° SE 20:58:56 10° ENE
Cosmos 1184 Rocket 4.2 20:53:49 10° SE 20:56:25 21° E 20:59:02 10° NE
Cosmos 1939 Rocket 3.2 20:53:37 10° SE 20:57:19 46° ENE 21:01:07 10° N
YAOGAN 6 4.4 20:56:17 10° ESE 20:58:29 16° ENE 21:00:41 10° NNE
SL-08 ROCKET BODY 4.5 20:52:55 10° S 20:58:57 88° W 21:04:55 10° N
Cosmos 1408 3.4 20:56:37 10° SSE 20:59:51 31° E 21:03:06 10° NNE
Sich 1 Rocket 3.7 20:56:36 10° S 21:01:07 67° E 21:05:41 10° NNE
Nadezhda 3 Rocket 4.2 20:56:18 10° N 21:02:32 55° ENE 21:08:46 10° SSE
CENTAUR R/B 4.1 20:55:25 10° NW 21:02:52 46° WSW 21:10:39 10° S
Meteor 2-6 Rocket 4.4 20:57:08 10° N 21:03:07 88° E 21:08:55 10° S
Cosmos 1238 Rocket 3.4 21:00:57 10° NNE 21:04:00 33° E 21:07:25 11° SE
Coronas F rocket 3.9 21:05:52 10° SW 21:08:04 23° WNW 21:10:17 10° NNW
SPOT 5 3.6 21:04:38 10° SE 21:09:38 44° ENE 21:14:43 10° N
Cosmos 1825 2.5 21:07:14 10° SSE 21:10:53 45° E 21:14:33 10° NNE
TIMED 4.5 21:08:00 10° SSW 21:12:21 83° ESE 21:16:46 10° NNE
COSMOS 2406 4.4 21:07:06 10° NW 21:12:29 42° WSW 21:17:48 10° S
Cosmos 1833 Rocket 4.2 21:08:57 10° N 21:13:17 22° NE 21:17:28 11° ESE
Cosmos 1975 Rocket 3.7 21:10:35 10° N 21:14:38 38° ENE 21:18:01 14° SE
Cosmos 2084 3.1 21:11:05 10° SSW 21:14:56 83° SE 21:18:47 10° NE
DNEPR-1 R/B 4.5 21:10:14 10° NNW 21:15:31 45° NE 21:19:11 15° ESE
Cosmos 2278 Rocket 2.2 21:12:01 10° S 21:17:36 63° ESE 21:23:14 10° NNE
Cosmos 1844 Rocket 3.2 21:12:19 10° SW 21:17:55 64° WNW 21:23:33 10° NNE
Cosmos 676 Rocket 4.0 21:13:08 10° NNW 21:18:22 87° WSW 21:23:36 10° SSE
Cosmos 1174 3.4 21:16:09 10° NW 21:19:20 62° WSW 21:21:43 14° SSE
COS B Rocket 3.2 21:17:57 10° N 21:21:58 65° E 21:25:27 10° S
Cosmos 1954 Rocket 4.0 21:17:04 10° NNW 21:22:18 79° ENE 21:27:04 13° SSE
Cosmos 1844 3.9 21:17:25 10° SSW 21:23:11 78° WNW 21:29:01 10° NNE
Cosmos 1908 Rocket 3.6 21:20:12 10° S 21:24:37 87° WNW 21:29:05 10° N
Cosmos 1378 Rocket 3.5 21:20:57 10° N 21:25:17 80° E 21:29:29 11° S
Cosmos 2341 Rocket 4.0 21:23:43 10° S 21:29:59 72° E 21:36:14 10° NNE
BREEZE-M DEB (TANK) 3.7 21:20:28 10° WNW 21:35:15 79° NNE 21:38:18 19° ESE
deb Chang Zheng 4 3.7 21:31:19 10° NNE 21:35:46 83° WNW 21:40:11 10° SSW
Cosmos 2082 Rocket 2.9 21:31:54 10° N 21:37:16 40° ENE 21:40:49 19° ESE
Cosmos 1741 Rocket 4.3 21:32:16 10° N 21:37:23 52° ENE 21:40:44 21° SE
GPS 2-05 Rocket1 3.9 21:36:08 10° WSW 21:39:27 31° S 21:40:33 26° SE
SL-8 Rocket 4.2 21:34:24 11° SSE 21:40:11 51° E 21:46:11 10° NNE
Cosmos 962 Rocket 4.5 21:34:57 10° S 21:41:07 86° E 21:47:24 10° N
Cosmos 1023 Rocket 4.4 21:36:40 10° NNW 21:41:48 79° ENE 21:45:26 20° SSE
Nimbus 7 Rocket 4.4 21:35:51 10° NNE 21:41:50 87° ESE 21:47:50 10° SSW
USA 245 3.7 21:42:27 26° ESE 21:43:56 42° ENE 21:47:54 10° N
Timation 2 Rocket 3.9 21:39:07 10° NNW 21:45:08 75° ENE 21:49:12 21° SSE
Intercosmos 25 2.9 21:47:34 22° S 21:49:38 61° E 21:52:45 10° NNE
Cosmos 1862 4.4 21:47:49 10° SSW 21:51:45 47° WNW 21:55:42 10° N
H-2A R/B 2.9 21:49:42 11° S 21:53:39 47° W 21:57:44 10° NNW
Cosmos 2297 3.7 21:48:21 10° S 21:53:58 64° ESE 21:59:39 10° NNE
Envisat 3.7 21:49:25 10° S 21:54:21 51° W 21:59:19 10° NNW
COSMOS 2487 3.4 21:51:50 10° NNW 21:55:18 44° WSW 21:57:31 19° SSW
Cosmos 2151 Rocket 4.1 21:53:44 27° SE 21:55:38 42° E 21:59:55 10° NNE
Cosmos 1606 4.4 21:52:26 10° NNW 21:55:57 31° W 21:59:26 10° SSW
Cosmos 1295 Rocket 4.5 21:52:30 10° S 21:58:49 86° E 22:05:08 10° N
NOAA 11 4.3 21:57:39 25° SE 22:00:49 63° ENE 22:06:16 10° N
CZ-4 R/B 4.1 21:56:32 10° NNE 22:01:00 43° E 22:02:41 30° SSE
APEX 3.6 21:59:29 10° SSW 22:03:22 85° WNW 22:08:33 10° NNE
Cosmos 614 Rocket 3.8 21:58:59 10° NNW 22:04:06 82° ENE 22:06:40 30° SSE
CZ-4 SHROUD 3.7 22:05:12 32° SSW 22:06:19 54° W 22:09:22 10° NNW
PSLV R/B 3.9 22:05:42 31° SSW 22:06:43 46° W 22:09:36 10° NNW
Cosmos 1420 Rocket 4.3 22:01:41 10° SSW 22:06:55 70° WNW 22:12:08 10° NNE
MetOp-B 4.4 22:06:48 19° S 22:10:39 65° WSW 22:15:59 10° NNW
Okean 1 Rocket 4.3 22:15:49 25° E 22:15:49 25° E 22:19:23 10° NE
Gbstr 26 Del rocket 4.4 22:10:59 10° NW 22:15:49 37° NNE 22:18:29 19° ENE
Cosmos 1140 Rocket 4.1 22:11:33 10° NNW 22:16:31 50° WSW 22:19:38 22° S
CZ-4C R/B 3.8 22:17:11 41° ESE 22:17:53 46° ENE 22:21:51 10° N
Landsat 7 4.0 22:19:26 39° SE 22:20:56 58° ENE 22:25:38 10° N
Cosmos 2366 rocket 3.9 22:16:58 22° S 22:21:13 77° E 22:27:34 10° N
H-2A R/B 2.4 22:22:52 36° SE 22:24:46 55° ENE 22:29:56 10° N
Cosmos 2369 Rocket 4.1 22:26:50 14° E 22:26:50 14° E 22:28:24 10° ENE
CZ-4B R/B 3.5 22:21:55 10° N 22:26:52 77° WNW 22:30:09 20° SSW
Okean 2 Rocket 4.5 22:23:16 10° SW 22:27:22 36° WNW 22:31:28 10° N
USA 234 3.6 22:22:15 10° ENE 22:28:16 38° SE 22:30:12 31° SSE
SL-08 RB Rocket 3.7 22:27:35 40° S 22:29:14 82° W 22:33:54 10° NNW
Cosmos 1242 Rocket 4.3 22:27:22 10° NNW 22:30:36 29° W 22:32:16 20° SW
ARGOS 3.3 22:28:01 31° S 22:30:40 71° WSW 22:36:02 10° NNW
YAOGAN 6 4.1 22:30:30 22° SW 22:31:50 29° W 22:34:58 10° NW
ISS -1.0 22:29:33 10° W 22:32:20 25° NNW 22:35:08 10° NE
Timation 1 Rocket 4.3 22:29:58 26° S 22:33:27 66° ESE 22:39:25 10° NNE
Terra 2.0 22:35:40 47° ESE 22:36:39 58° ENE 22:41:20 10° N
OAO 3 Rocket 4.2 22:32:48 10° WSW 22:36:05 31° SSW 22:36:05 31° SSW
SPOT 1/Viking Rocket 4.2 22:37:46 26° SSW 22:40:23 49° W 22:45:27 10° NNW
Meteor 1-20 Rocket 4.1 22:43:06 40° S 22:45:12 81° E 22:50:45 10° NNE
Cosmos 1302 Rocket 4.5 22:46:58 42° E 22:46:58 42° E 22:51:50 10° NNE
AVUM R/B 3.7 22:43:34 10° NNW 22:46:42 66° NW 22:46:42 66° NW
Spot 4 3.9 22:50:39 55° ESE 22:51:20 61° ENE 22:56:08 10° N
CARTOSAT-1 3.4 22:52:52 76° SSE 22:53:12 89° ENE 22:57:32 10° NNW
Okean 1 3.2 22:50:18 10° N 22:54:20 85° NE 22:54:20 85° NE
DELTA 2 DEB (DPAF) 4.4 22:56:30 53° SW 22:57:13 61° WSW 23:01:40 10° NNW
Cosmos 1833 Rocket 3.0 22:52:06 10° NNW 22:57:38 59° WSW 22:59:10 44° SSW
SAR-Lupe-2 4.3 23:03:06 48° NNE 23:03:06 48° NNE 23:05:52 10° N
Lacrosse 5 2.4 23:04:10 43° E 23:04:10 43° E 23:07:52 10° NE
Cosmos 1727 Rocket 4.4 22:58:29 10° NNW 23:04:30 56° W 23:07:08 33° SSW
Iridium 4 Rocket 4.0 23:08:34 10° N 23:14:22 54° E 23:14:58 52° ESE
Cosmos 1812 3.7 23:11:03 10° NNW 23:14:33 41° W 23:14:33 41° W
ASTEX 1 3.3 23:12:18 10° N 23:17:17 84° W 23:17:44 74° SSW
USA 229 DEB 4.3 23:12:13 10° NW 23:18:58 48° WSW 23:20:58 38° SSW
USA 229 4.3 23:12:18 10° NW 23:19:05 48° WSW 23:21:04 39° SSW
Cosmos 2082 Rocket 3.5 23:16:18 10° NW 23:21:10 30° WSW 23:22:40 26° SW
Cosmos 1503 Rocket 4.2 23:21:26 10° NNW 23:26:36 57° ENE 23:26:48 56° ENE
Meteor 2-4 Rocket 3.8 23:24:34 10° N 23:29:58 59° ENE 23:30:10 59° E
Cosmos 1315 Rocket 4.4 23:34:55 27° NE 23:34:55 27° NE 23:36:57 10° NNE
Meteor 1-13 Rocket 4.5 23:30:38 10° NNW 23:36:32 65° W 23:37:28 57° SW
Lacrosse 5 rocket 3.0 23:38:52 25° NNE 23:38:52 25° NNE 23:40:37 10° NE
NOSS 3-1 (A) 4.0 23:29:57 10° NNW 23:37:34 77° NE 23:40:02 49° SE
Cosmos 1821 Rocket 3.9 23:36:41 64° S 23:37:46 89° WNW 23:44:00 10° N
Cosmos 1605 Rocket 4.2 23:38:08 54° ESE 23:38:32 55° E 23:44:46 10° NNE
Cosmos 1025 Rocket 3.5 23:35:17 10° N 23:38:57 61° N 23:38:57 61° N
Meteor 2-21 Rocket 4.3 23:41:15 69° S 23:42:05 90° E 23:48:20 10° N
Meteor 2-16 Rocket 4.3 23:42:36 71° SE 23:43:03 75° E 23:49:09 10° NNE
Cosmos 1455 Rocket 4.4 23:47:53 32° NE 23:47:53 32° NE 23:50:31 10° NNE
Cosmos 2285 Rocket 3.8 23:47:10 72° SSE 23:47:48 80° ESE 23:54:13 10° NNE
Cosmos 1934 Rocket 3.7 23:47:59 74° SSW 23:48:36 88° W 23:54:41 10° N
Meteor 1-11 Rocket 4.1 23:49:23 53° WSW 23:50:25 62° WNW 23:56:09 10° N
ALOS 2 3.8 23:52:11 34° NE 23:52:11 34° NE 23:55:25 10° N
BREEZE-M TANK 3.4 23:51:14 10° WNW 23:56:11 46° WNW 23:56:11 46° WNW
